period_start,C,m1,H,J0,J1,J2,J3,J4,J5,JA,JB,JC,JD,JJ,JK,JN,#
2015-03-26 00:00:30,1.04,2.27,0.83,21.09,26.89,29.28,4.65,29.59,979.51,2036.03,2629.77,2691.10,2913.84,349.77,337.08,18.19,0000 0000 0000 0000 000000
2015-03-26 00:05:31,0.72,2.29,1.00,21.04,26.86,29.25,4.66,29.41,979.80,2036.41,2625.47,2685.03,2907.54,350.01,337.29,18.22,0000 0000 0000 0000 000000
2015-03-26 00:10:32,0.65,2.31,1.00,20.98,26.84,29.18,4.62,29.49,979.96,2036.97,2621.75,2680.10,2902.46,349.88,337.33,18.25,0000 0000 0000 0000 000000
2015-03-26 00:15:33,0.56,2.33,1.00,20.89,26.81,29.06,4.65,29.50,980.38,2037.00,2618.52,2675.31,2897.75,349.74,337.44,18.28,0000 0000 0000 0000 000000
2015-03-26 00:20:34,0.42,2.34,1.00,20.86,26.79,29.12,4.78,29.66,980.81,2037.03,2615.97,2671.39,2893.92,350.15,338.04,18.31,0000 0000 0000 0000 000000
2015-03-26 00:25:35,0.35,2.35,1.00,20.79,26.76,29.02,4.68,29.21,981.30,2037.31,2614.50,2669.10,2891.67,349.52,337.67,18.34,0000 0000 0000 0000 000000
2015-03-26 00:30:37,0.21,2.36,1.00,20.77,26.73,28.97,4.74,29.14,981.67,2037.64,2613.38,2667.45,2889.88,349.86,338.23,18.37,0000 0000 0000 0000 000000
2015-03-26 00:35:38,0.27,2.37,1.00,20.74,26.70,28.93,4.68,28.92,981.72,2037.97,2611.79,2665.59,2888.16,350.40,338.59,18.39,0000 0000 0000 0000 000000
2015-03-26 00:40:39,0.22,2.37,1.00,20.69,26.66,28.89,4.63,28.88,982.12,2037.99,2610.48,2663.81,2886.29,349.81,338.35,18.42,0000 0000 0000 0000 000000
2015-03-26 00:45:40,0.51,2.39,1.00,20.72,26.63,28.91,4.62,29.08,982.39,2038.00,2607.75,2660.05,2882.49,349.77,338.41,18.45,0000 0000 0000 0000 000000
2015-03-26 00:50:41,0.35,2.40,1.00,20.70,26.60,28.88,4.75,29.09,982.47,2038.03,2605.64,2656.81,2879.34,350.03,338.74,18.48,0000 0000 0000 0000 000000
2015-03-26 00:55:42,1.04,2.42,1.00,20.68,26.57,28.87,4.64,29.01,982.55,2038.05,2600.90,2649.13,2871.77,349.97,338.61,18.51,0000 0000 0000 0000 000000
2015-03-26 01:00:43,0.65,2.45,0.10,20.60,26.54,28.85,4.65,29.23,982.83,2038.25,2596.79,2643.16,2865.76,349.30,338.20,18.54,0000 0000 0000 0000 000000
2015-03-26 01:05:45,0.41,2.46,0.00,20.57,26.50,28.81,4.72,29.15,982.90,2038.69,2594.38,2639.93,2862.57,349.97,339.05,18.57,0000 0000 0000 0000 000000
2015-03-26 01:10:46,0.28,2.47,0.00,20.60,26.46,28.80,4.74,29.02,983.16,2038.93,2592.65,2637.82,2860.24,350.37,339.26,18.60,0000 0000 0000 0000 000000
2015-03-26 01:15:48,0.30,2.48,0.00,20.59,26.43,28.73,4.71,29.16,983.14,2038.98,2590.70,2635.63,2858.08,349.75,338.75,18.63,0000 0000 0000 0000 000000
2015-03-26 01:20:49,0.25,2.49,0.00,20.58,26.40,28.72,4.69,28.99,983.36,2038.99,2589.06,2633.54,2855.89,349.89,339.09,18.66,0000 0000 0000 0000 000000
2015-03-26 01:25:50,0.27,2.50,0.00,20.53,26.37,28.62,4.71,29.06,983.33,2039.01,2587.31,2631.48,2853.75,350.51,339.60,18.69,0000 0000 0000 0000 000000
2015-03-26 01:30:52,0.32,2.51,0.00,20.51,26.34,28.62,4.64,29.29,983.38,2039.08,2585.16,2629.19,2851.39,350.21,339.43,18.72,0000 0000 0000 0000 000000
2015-03-26 01:35:53,0.44,2.52,0.00,20.47,26.31,28.53,4.61,29.05,983.74,2039.63,2582.88,2626.72,2848.77,349.51,338.86,18.75,0000 0000 0000 0000 000000
2015-03-26 01:40:54,0.28,2.53,0.00,20.47,26.27,28.56,4.64,29.01,984.20,2039.91,2581.55,2624.39,2846.44,349.88,339.30,18.77,0000 0000 0000 0000 000000
2015-03-26 01:45:56,0.31,2.54,0.00,20.45,26.24,28.56,4.67,28.94,984.46,2039.98,2579.96,2622.03,2843.95,349.71,339.39,18.80,0000 0000 0000 0000 000000
2015-03-26 01:50:57,0.42,2.55,0.00,20.50,26.21,28.48,4.70,28.93,984.80,2039.98,2577.74,2618.83,2840.69,350.11,339.73,18.83,0000 0000 0000 0000 000000
2015-03-26 01:55:58,0.43,2.56,0.00,20.49,26.18,28.49,4.82,28.90,985.19,2039.99,2575.25,2615.17,2836.98,350.13,339.94,18.86,0000 0000 0000 0000 000000
2015-03-26 02:00:59,0.50,2.57,0.00,20.46,26.15,28.46,4.72,28.97,985.26,2039.99,2572.55,2611.59,2833.28,349.72,339.48,18.89,0000 0000 0000 0000 000000
2015-03-26 02:06:00,0.64,2.59,0.00,20.42,26.11,28.43,4.78,28.97,985.48,2040.00,2568.42,2606.63,2828.29,350.15,340.08,18.92,0000 0000 0000 0000 000000
2015-03-26 02:11:02,0.57,2.61,0.00,20.41,26.09,28.44,4.75,28.82,985.85,2040.02,2565.06,2602.02,2823.67,349.90,339.97,18.95,0000 0000 0000 0000 000000
2015-03-26 02:16:03,0.52,2.63,0.00,20.43,26.06,28.44,4.70,28.88,986.00,2040.07,2561.96,2597.90,2819.34,350.39,340.55,18.98,0000 0000 0000 0000 000000
2015-03-26 02:21:04,0.48,2.64,0.00,20.45,26.03,28.41,4.73,28.82,986.19,2040.30,2559.57,2594.19,2815.85,350.06,340.18,19.01,0000 0000 0000 0000 000000
2015-03-26 02:26:05,2.07,2.68,0.00,20.45,26.00,28.41,4.77,28.82,986.34,2040.85,2552.04,2581.62,2803.78,350.44,340.54,19.04,0000 0000 0000 0000 000000
2015-03-26 02:31:06,0.45,2.71,0.97,20.47,25.97,28.34,4.71,28.80,986.43,2040.96,2547.54,2574.12,2796.32,350.29,340.64,19.07,0000 0000 0000 0000 000000
2015-03-26 02:36:07,0.35,2.72,1.00,20.48,25.94,28.35,4.73,28.63,986.76,2040.98,2545.46,2571.34,2793.46,349.64,340.02,19.10,0000 0000 0000 0000 000000
2015-03-26 02:41:09,0.77,2.74,1.00,20.46,25.91,28.37,4.71,28.76,986.93,2040.99,2541.97,2566.82,2788.98,350.14,340.66,19.13,0000 0000 0000 0000 000000
2015-03-26 02:46:10,0.30,2.76,1.00,20.44,25.88,28.33,4.68,28.56,987.30,2040.99,2539.14,2562.55,2784.85,349.84,340.44,19.16,0000 0000 0000 0000 000000
2015-03-26 02:51:11,0.19,2.76,1.00,20.47,25.86,28.32,4.70,28.74,987.52,2040.99,2538.86,2560.64,2783.00,350.42,341.27,19.19,0000 0000 0000 0000 000000
2015-03-26 02:56:13,0.19,2.77,1.00,20.44,25.83,28.27,4.68,28.60,987.70,2040.99,2539.04,2558.89,2781.04,349.70,340.44,19.21,0000 0000 0000 0000 000000
2015-03-26 03:01:14,0.29,2.78,0.00,20.45,25.81,28.26,4.70,28.83,987.74,2040.97,2537.44,2556.70,2778.69,349.33,340.16,19.24,0000 0000 0000 0000 000000
2015-03-26 03:06:15,0.32,2.79,0.00,20.48,25.78,28.29,4.70,28.67,987.93,2040.98,2535.45,2554.33,2776.19,349.53,340.05,19.27,0000 0000 0000 0000 000000
2015-03-26 03:11:17,0.37,2.80,0.00,20.49,25.76,28.27,4.77,28.88,988.06,2040.98,2532.87,2551.83,2773.42,350.03,340.84,19.30,0000 0000 0000 0000 000000
2015-03-26 03:16:18,0.28,2.81,0.00,20.47,25.74,28.35,4.67,28.89,988.23,2040.98,2531.02,2549.37,2770.98,349.24,340.15,19.33,0000 0000 0000 0000 000000
2015-03-26 03:21:20,0.36,2.82,0.00,20.45,25.72,28.29,4.71,28.93,988.41,2040.99,2528.79,2546.95,2768.48,349.55,340.43,19.36,0000 0000 0000 0000 000000
2015-03-26 03:26:21,0.30,2.83,0.00,20.44,25.70,28.28,4.70,28.82,988.60,2040.99,2526.90,2544.54,2766.12,349.60,340.70,19.39,0000 0000 0000 0000 000000
2015-03-26 03:31:22,0.29,2.84,0.00,20.42,25.68,28.33,4.65,28.68,988.95,2040.99,2524.64,2542.30,2763.66,349.72,340.92,19.42,0000 0000 0000 0000 000000
2015-03-26 03:36:24,0.40,2.85,0.00,20.46,25.66,28.32,4.72,28.86,988.91,2041.00,2522.34,2539.84,2761.10,350.21,341.25,19.45,0000 0000 0000 0000 000000
2015-03-26 03:41:25,0.34,2.86,0.00,20.42,25.65,28.28,4.68,29.02,989.08,2041.01,2519.97,2536.98,2758.12,349.73,341.10,19.48,0000 0000 0000 0000 000000
2015-03-26 03:46:26,0.59,2.87,0.00,20.42,25.63,28.28,4.72,28.99,989.07,2041.02,2517.15,2533.00,2754.17,349.87,340.96,19.51,0000 0000 0000 0000 000000
2015-03-26 03:51:27,0.48,2.89,0.00,20.35,25.61,28.35,4.72,29.27,989.23,2041.08,2514.18,2528.89,2750.02,349.96,341.13,19.54,0000 0000 0000 0000 000000
2015-03-26 03:56:28,0.38,2.90,0.00,20.30,25.60,28.27,4.74,29.23,989.45,2041.06,2512.19,2525.73,2746.89,349.72,341.23,19.57,0000 0000 0000 0000 000000
2015-03-26 04:01:29,0.63,2.91,0.00,20.27,25.57,28.33,4.73,29.32,989.51,2041.25,2509.16,2522.03,2743.17,349.65,341.09,19.60,0000 0000 0000 0000 000000
2015-03-26 04:06:30,0.46,2.93,0.00,20.30,25.56,28.26,4.74,29.13,989.81,2041.36,2506.49,2518.53,2739.67,350.17,341.88,19.62,0000 0000 0000 0000 000000
2015-03-26 04:11:31,0.31,2.94,0.00,20.32,25.55,28.21,4.71,29.11,990.13,2041.50,2504.37,2515.62,2736.64,350.10,341.69,19.65,0000 0000 0000 0000 000000
2015-03-26 04:16:33,0.48,2.95,0.00,20.29,25.52,28.27,4.74,29.01,990.24,2041.88,2501.97,2513.03,2733.89,349.83,341.59,19.68,0000 0000 0000 0000 000000
2015-03-26 04:21:34,0.32,2.97,0.00,20.29,25.51,28.25,4.76,29.10,990.43,2041.96,2499.28,2510.58,2731.34,350.29,342.12,19.71,0000 0000 0000 0000 000000
2015-03-26 04:26:35,0.34,2.98,0.00,20.28,25.50,28.20,4.69,29.14,990.55,2041.99,2497.03,2508.44,2729.02,349.80,341.70,19.74,0000 0000 0000 0000 000000
2015-03-26 04:31:36,0.98,2.99,0.00,20.24,25.48,28.18,4.75,29.18,990.43,2042.00,2492.07,2502.67,2726.15,350.08,341.87,19.77,0000 0000 0000 0000 000000
2015-03-26 04:36:37,0.62,3.02,0.00,20.22,25.47,28.22,4.77,29.05,990.64,2042.02,2488.46,2496.33,2718.19,349.96,341.87,19.80,0000 0000 0000 0000 000000
2015-03-26 04:41:39,0.27,3.03,0.00,20.22,25.45,28.18,4.72,29.22,990.69,2042.05,2486.89,2494.60,2714.94,349.76,341.77,19.83,0000 0000 0000 0000 000000
2015-03-26 04:46:40,0.31,3.04,0.00,20.23,25.44,28.20,4.76,29.20,990.83,2042.16,2484.94,2492.57,2712.86,350.14,342.20,19.86,0000 0000 0000 0000 000000
2015-03-26 04:51:41,0.32,3.05,0.00,20.25,25.42,28.15,4.79,29.27,991.07,2042.50,2483.19,2490.64,2710.73,349.92,341.89,19.89,0000 0000 0000 0000 000000
2015-03-26 04:56:42,0.24,3.06,0.00,20.17,25.41,28.21,4.77,28.88,991.49,2042.58,2482.11,2488.85,2708.94,350.35,342.71,19.92,0000 0000 0000 0000 000000
2015-03-26 05:01:44,0.17,3.06,0.00,20.20,25.40,28.19,4.78,29.06,991.71,2042.44,2480.61,2486.97,2706.97,350.10,342.54,19.95,0000 0000 0000 0000 000000
2015-03-26 05:06:45,0.44,3.07,0.00,20.16,25.39,28.13,4.74,29.24,991.74,2042.80,2479.10,2484.90,2704.85,350.01,342.63,19.98,0000 0000 0000 0000 000000
2015-03-26 05:11:46,0.37,3.08,0.00,20.15,25.37,28.09,4.78,29.00,991.75,2042.83,2477.03,2482.47,2702.24,350.10,342.45,20.01,0000 0000 0000 0000 000000
2015-03-26 05:16:47,0.33,3.10,0.00,20.14,25.37,28.11,4.69,29.27,991.98,2042.95,2474.53,2479.84,2699.37,349.71,342.30,20.03,0000 0000 0000 0000 000000
2015-03-26 05:21:49,0.41,3.10,0.00,20.13,25.35,28.10,4.77,29.26,992.12,2042.97,2472.70,2477.17,2696.74,350.27,342.90,20.06,0000 0000 0000 0000 000000
2015-03-26 05:26:50,0.31,3.12,0.00,20.10,25.35,28.13,4.75,29.18,992.31,2042.97,2470.53,2474.62,2694.03,350.11,342.63,20.09,0000 0000 0000 0000 000000
2015-03-26 05:31:51,0.71,3.13,0.00,20.14,25.33,28.16,4.68,29.30,992.61,2042.97,2467.49,2470.54,2689.78,349.50,342.20,20.12,0000 0000 0000 0000 000000
2015-03-26 05:36:52,0.41,3.15,0.00,20.17,25.32,28.11,4.74,29.20,993.07,2042.98,2464.84,2466.19,2685.34,350.12,343.03,20.15,0000 0000 0000 0000 000000
2015-03-26 05:41:54,0.41,3.16,0.00,20.16,25.31,28.10,4.71,29.13,993.33,2042.95,2463.11,2463.17,2682.34,350.26,343.38,20.18,0000 0000 0000 0000 000000
2015-03-26 05:46:55,0.46,3.17,0.00,20.11,25.30,28.10,4.76,28.98,993.72,2042.96,2460.43,2459.74,2678.91,349.88,343.15,20.21,0000 0000 0000 0000 000000
2015-03-26 05:51:56,0.37,3.18,0.00,20.15,25.30,28.06,4.78,29.21,993.84,2042.91,2458.56,2456.91,2675.94,350.39,343.66,20.24,0000 0000 0000 0000 000000
2015-03-26 05:56:58,0.45,3.20,0.00,20.18,25.28,28.08,4.75,29.23,994.14,2042.81,2455.92,2453.43,2672.50,349.48,342.76,20.27,0000 0000 0000 0000 000000
2015-03-26 06:01:59,0.34,3.21,0.00,20.19,25.27,28.08,4.75,29.36,994.51,2042.62,2454.06,2450.43,2669.36,350.12,343.50,20.30,0000 0000 0000 0000 000000
2015-03-26 06:07:00,0.35,3.22,0.00,20.19,25.27,28.10,4.75,28.82,994.78,2042.56,2452.26,2447.77,2666.59,349.77,343.36,20.33,0000 0000 0000 0000 000000
2015-03-26 06:12:01,0.36,3.23,0.00,20.17,25.26,28.07,4.76,28.81,995.09,2042.54,2450.26,2444.99,2663.65,349.34,343.11,20.36,0000 0000 0000 0000 000000
2015-03-26 06:17:03,0.37,3.24,0.00,20.19,25.25,28.09,4.76,28.78,995.53,2042.40,2448.41,2442.41,2661.04,349.91,343.65,20.39,0000 0000 0000 0000 000000
2015-03-26 06:22:04,0.31,3.25,0.00,20.22,25.25,28.04,4.73,28.93,995.88,2042.31,2446.65,2440.05,2658.71,349.42,343.26,20.42,0000 0000 0000 0000 000000
2015-03-26 06:27:06,0.35,3.26,0.00,20.26,25.25,28.08,4.77,28.73,996.13,2042.07,2444.49,2437.24,2655.58,350.37,344.16,20.44,0000 0000 0000 0000 000000
2015-03-26 06:32:07,0.34,3.27,0.00,20.27,25.23,28.09,4.75,28.72,996.45,2042.07,2442.51,2434.69,2653.11,349.14,343.10,20.47,0000 0000 0000 0000 000000
2015-03-26 06:37:08,0.27,3.28,0.00,20.30,25.22,28.12,4.75,28.72,996.60,2042.03,2440.93,2432.58,2650.89,349.90,343.88,20.50,0000 0000 0000 0000 000000
2015-03-26 06:42:10,0.24,3.29,0.00,20.34,25.22,28.09,4.76,28.67,996.80,2042.02,2439.41,2430.76,2648.84,349.81,343.88,20.53,0000 0000 0000 0000 000000
2015-03-26 06:47:11,0.32,3.29,0.00,20.33,25.22,28.09,4.76,28.72,996.96,2042.01,2437.72,2428.89,2646.78,350.07,344.29,20.56,0000 0000 0000 0000 000000
2015-03-26 06:52:12,0.36,3.31,0.00,20.29,25.21,28.10,4.74,28.67,997.13,2042.00,2435.75,2426.31,2644.19,349.32,343.40,20.59,0000 0000 0000 0000 000000
2015-03-26 06:57:13,0.35,3.32,0.00,20.26,25.20,28.06,4.77,29.07,997.13,2042.00,2433.35,2423.80,2641.46,349.89,344.10,20.62,0000 0000 0000 0000 000000
2015-03-26 07:02:15,0.32,3.33,0.00,20.26,25.20,28.11,4.78,28.82,997.28,2042.00,2431.54,2421.50,2639.12,349.86,344.35,20.65,0000 0000 0000 0000 000000
2015-03-26 07:07:16,0.33,3.34,0.00,20.27,25.20,28.09,4.68,28.93,997.46,2042.00,2429.66,2419.27,2636.89,349.53,343.77,20.68,0000 0000 0000 0000 000000
2015-03-26 07:12:17,0.26,3.35,0.00,20.29,25.20,28.09,4.76,28.85,997.67,2042.00,2427.89,2417.11,2634.70,350.13,344.48,20.71,0000 0000 0000 0000 000000
2015-03-26 07:17:19,0.36,3.35,0.00,20.31,25.20,28.09,4.76,29.12,997.52,2042.00,2426.09,2414.98,2632.38,350.08,344.27,20.74,0000 0000 0000 0000 000000
2015-03-26 07:22:20,0.44,3.37,0.00,20.28,25.20,28.06,4.75,29.02,997.59,2042.01,2423.28,2411.92,2629.39,349.78,344.15,20.77,0000 0000 0000 0000 000000
2015-03-26 07:27:21,0.43,3.38,0.00,20.29,25.19,28.11,4.76,28.95,997.73,2042.03,2420.53,2409.10,2626.41,350.26,344.68,20.80,0000 0000 0000 0000 000000
2015-03-26 07:32:22,0.36,3.39,0.00,20.26,25.18,28.12,4.78,28.86,997.92,2042.04,2418.72,2406.41,2623.69,350.33,344.74,20.83,0000 0000 0000 0000 000000
2015-03-26 07:37:23,0.48,3.40,0.00,20.27,25.17,28.13,4.80,29.05,997.94,2042.07,2416.10,2403.41,2620.78,349.90,344.38,20.85,0000 0000 0000 0000 000000
2015-03-26 07:42:24,0.31,3.41,0.00,20.27,25.17,28.10,4.75,29.09,998.13,2042.04,2414.39,2400.92,2618.14,349.89,344.36,20.88,0000 0000 0000 0000 000000
2015-03-26 07:47:26,0.43,3.43,0.00,20.23,25.17,28.11,4.79,29.02,998.29,2042.02,2412.24,2398.03,2615.24,349.92,344.22,20.91,0000 0000 0000 0000 000000
2015-03-26 07:52:27,0.36,3.44,0.00,20.16,25.17,28.06,4.74,28.97,998.59,2042.02,2410.43,2395.17,2612.29,350.08,344.92,20.94,0000 0000 0000 0000 000000
2015-03-26 07:57:28,0.49,3.45,0.00,20.18,25.17,28.07,4.71,29.27,998.51,2042.04,2407.84,2391.99,2609.01,349.69,344.47,20.97,0000 0000 0000 0000 000000
2015-03-26 08:02:30,0.54,3.47,0.00,20.14,25.16,28.04,4.78,29.41,998.49,2042.01,2405.14,2388.27,2605.11,349.92,344.73,21.00,0000 0000 0000 0000 000000
2015-03-26 08:07:31,0.57,3.48,0.00,20.11,25.15,28.08,4.80,29.24,998.57,2042.01,2402.17,2384.16,2600.99,350.23,344.89,21.03,0000 0000 0000 0000 000000
2015-03-26 08:12:32,1.29,3.51,0.00,20.13,25.15,28.04,4.75,29.23,998.67,2042.18,2395.42,2376.55,2593.10,349.61,344.50,21.06,0000 0000 0000 0000 000000
2015-03-26 08:17:34,0.48,3.54,0.00,20.07,25.14,27.98,4.82,29.30,998.83,2042.14,2392.22,2371.89,2587.85,350.20,345.31,21.09,0000 0000 0000 0000 000000
2015-03-26 08:22:35,0.67,3.56,0.00,20.03,25.12,27.94,4.86,29.21,999.17,2042.05,2389.09,2367.36,2583.15,350.41,345.48,21.12,0000 0000 0000 0000 000000
2015-03-26 08:27:36,0.50,3.57,0.27,20.01,25.12,27.95,4.77,29.27,999.50,2042.02,2386.87,2363.86,2579.33,350.02,345.25,21.15,0000 0000 0000 0000 000000
2015-03-26 08:32:38,0.36,3.58,1.00,20.05,25.12,27.94,4.83,29.15,999.81,2042.00,2384.96,2360.66,2576.08,350.02,345.33,21.18,0000 0000 0000 0000 000000
2015-03-26 08:37:39,0.33,3.59,1.00,20.04,25.10,27.89,4.77,28.92,1000.21,2042.00,2383.34,2358.21,2573.78,349.69,345.18,21.21,0000 0000 0000 0000 000000
2015-03-26 08:42:41,0.29,3.60,1.00,20.04,25.10,27.91,4.75,28.69,1000.57,2042.00,2381.71,2356.27,2571.71,349.41,345.11,21.24,0000 0000 0000 0000 000000
2015-03-26 08:47:42,0.27,3.61,1.00,20.07,25.09,27.84,4.74,28.82,1000.81,2042.00,2380.28,2354.37,2569.79,349.70,345.33,21.26,0000 0000 0000 0000 000000
2015-03-26 08:52:43,0.30,3.62,1.00,20.10,25.07,27.89,4.79,28.80,1001.01,2042.00,2378.50,2352.28,2567.63,349.85,345.62,21.29,0000 0000 0000 0000 000000
2015-03-26 08:57:44,0.25,3.63,0.70,20.11,25.07,27.84,4.76,28.87,1001.19,2042.00,2377.07,2350.57,2565.86,349.62,345.32,21.32,0000 0000 0000 0000 000000
2015-03-26 09:02:46,0.19,3.63,0.00,20.09,25.06,27.84,4.73,28.88,1001.42,2042.00,2375.85,2349.30,2564.37,349.96,345.74,21.35,0000 0000 0000 0000 000000
2015-03-26 09:07:47,0.15,3.64,0.00,20.07,25.05,27.80,4.81,28.70,1001.56,2042.00,2374.91,2348.16,2563.07,350.03,345.96,21.38,0000 0000 0000 0000 000000
2015-03-26 09:12:48,0.30,3.64,0.00,20.06,25.05,27.84,4.73,28.95,1001.54,2041.99,2373.21,2346.63,2561.52,349.02,345.00,21.41,0000 0000 0000 0000 000000
2015-03-26 09:17:50,0.22,3.65,0.00,20.07,25.03,27.81,4.86,28.84,1001.85,2041.99,2371.67,2344.88,2559.69,350.51,346.44,21.44,0000 0000 0000 0000 000000
2015-03-26 09:22:51,0.19,3.66,0.00,20.09,25.02,27.82,4.80,28.79,1002.27,2041.99,2370.70,2343.67,2558.60,349.74,345.71,21.47,0000 0000 0000 0000 000000
2015-03-26 09:27:53,0.27,3.66,0.00,20.11,25.02,27.80,4.79,28.91,1002.45,2041.99,2369.43,2342.17,2556.96,349.46,345.69,21.50,0000 0000 0000 0000 000000
2015-03-26 09:32:54,0.20,3.67,0.00,20.10,25.00,27.72,4.79,28.95,1002.82,2041.99,2368.12,2340.37,2555.12,349.38,345.78,21.53,0000 0000 0000 0000 000000
2015-03-26 09:37:55,0.20,3.68,0.00,20.09,25.00,27.74,4.78,28.86,1003.05,2041.98,2367.06,2339.03,2553.62,349.84,346.37,21.56,0000 0000 0000 0000 000000
2015-03-26 09:42:56,0.20,3.69,0.00,20.12,24.98,27.74,4.78,28.86,1003.16,2041.98,2365.89,2337.75,2552.39,350.25,346.87,21.59,0000 0000 0000 0000 000000
2015-03-26 09:47:58,0.20,3.69,0.00,20.10,24.97,27.72,4.71,28.75,1003.37,2041.98,2364.74,2336.48,2551.04,349.87,346.43,21.62,0000 0000 0000 0000 000000
2015-03-26 09:52:59,0.26,3.70,0.00,20.13,24.97,27.69,4.77,28.86,1003.46,2041.98,2363.19,2334.89,2549.34,349.92,346.48,21.65,0000 0000 0000 0000 000000
2015-03-26 09:58:00,0.23,3.71,0.00,20.09,24.96,27.75,4.73,28.93,1003.76,2041.99,2361.87,2333.33,2547.72,349.88,346.72,21.67,0000 0000 0000 0000 000000
2015-03-26 10:03:01,0.17,3.71,0.00,20.09,24.95,27.73,4.86,28.87,1004.08,2041.99,2360.80,2332.05,2546.32,350.52,347.15,21.70,0000 0000 0000 0000 000000
2015-03-26 10:08:03,0.13,3.72,0.00,20.11,24.95,27.71,4.88,28.96,1004.36,2041.98,2360.00,2331.13,2545.38,350.66,347.53,21.73,0000 0000 0000 0000 000000
2015-03-26 10:13:04,0.29,3.72,0.00,20.10,24.93,27.70,4.76,29.02,1004.37,2041.98,2358.46,2329.57,2543.93,349.69,346.49,21.76,0000 0000 0000 0000 000000
2015-03-26 10:18:05,0.23,3.73,0.00,20.08,24.92,27.69,4.76,28.83,1004.41,2041.99,2356.86,2327.89,2542.11,350.02,346.76,21.79,0000 0000 0000 0000 000000
2015-03-26 10:23:06,0.17,3.74,0.00,20.09,24.92,27.68,4.78,28.60,1004.47,2041.98,2355.87,2326.83,2540.83,350.43,347.41,21.82,0000 0000 0000 0000 000000
2015-03-26 10:28:07,0.16,3.74,0.00,20.06,24.90,27.71,4.77,28.61,1004.53,2041.98,2354.73,2325.84,2539.81,349.93,346.92,21.85,0000 0000 0000 0000 000000
2015-03-26 10:33:09,0.20,3.75,0.00,20.06,24.90,27.72,4.76,28.77,1004.60,2041.99,2353.63,2324.73,2538.58,349.61,346.74,21.88,0000 0000 0000 0000 000000
2015-03-26 10:38:10,0.17,3.75,0.00,20.01,24.89,27.68,4.79,28.62,1004.81,2041.99,2352.67,2323.66,2537.39,349.82,346.74,21.91,0000 0000 0000 0000 000000
2015-03-26 10:43:11,0.22,3.76,0.00,20.00,24.87,27.65,4.81,28.58,1004.78,2041.99,2351.16,2322.28,2535.92,350.30,347.56,21.94,0000 0000 0000 0000 000000
2015-03-26 10:48:12,0.21,3.77,0.00,19.97,24.87,27.71,4.80,28.75,1004.89,2041.99,2349.81,2320.85,2534.54,349.70,346.93,21.97,0000 0000 0000 0000 000000
2015-03-26 10:53:13,0.21,3.77,0.00,19.96,24.86,27.71,4.82,28.64,1005.24,2041.99,2348.59,2319.36,2533.01,349.96,347.32,22.00,0000 0000 0000 0000 000000
2015-03-26 10:58:15,0.20,3.78,0.00,19.96,24.85,27.63,4.85,28.70,1005.38,2041.99,2347.49,2318.25,2531.63,349.87,347.28,22.03,0000 0000 0000 0000 000000
2015-03-26 11:03:16,0.21,3.78,0.00,19.92,24.85,27.63,4.76,28.81,1005.39,2041.99,2346.11,2316.89,2530.37,349.70,347.19,22.06,0000 0000 0000 0000 000000
2015-03-26 11:08:17,0.33,3.79,0.00,19.86,24.83,27.62,4.78,28.90,1005.31,2041.99,2344.21,2315.07,2528.40,349.29,346.79,22.08,0000 0000 0000 0000 000000
2015-03-26 11:13:19,0.26,3.80,0.00,19.83,24.82,27.56,4.84,28.86,1005.26,2041.99,2342.63,2313.08,2526.38,349.95,347.48,22.11,0000 0000 0000 0000 000000
2015-03-26 11:18:20,0.29,3.81,0.00,19.82,24.81,27.61,4.83,28.92,1005.31,2041.99,2340.99,2311.40,2524.53,350.18,347.67,22.14,0000 0000 0000 0000 000000
2015-03-26 11:23:22,0.29,3.82,0.00,19.82,24.80,27.56,4.81,28.98,1005.15,2041.99,2339.38,2309.53,2522.54,349.87,347.16,22.17,0000 0000 0000 0000 000000
2015-03-26 11:28:23,0.33,3.83,0.00,19.75,24.80,27.56,4.81,29.03,1004.96,2042.00,2337.41,2307.37,2520.33,349.57,347.08,22.20,0000 0000 0000 0000 000000
2015-03-26 11:33:24,0.24,3.84,0.00,19.77,24.78,27.54,4.84,28.93,1005.19,2042.00,2336.33,2305.77,2518.53,350.70,348.24,22.23,0000 0000 0000 0000 000000
2015-03-26 11:38:25,0.20,3.84,0.00,19.74,24.77,27.54,4.77,28.89,1005.56,2042.00,2335.09,2304.42,2516.99,349.14,346.95,22.26,0000 0000 0000 0000 000000
2015-03-26 11:43:26,0.17,3.85,0.00,19.72,24.76,27.48,4.81,28.81,1005.82,2042.00,2334.15,2303.24,2515.81,350.21,347.96,22.29,0000 0000 0000 0000 000000
2015-03-26 11:48:27,0.14,3.85,0.00,19.71,24.75,27.38,4.86,28.77,1005.89,2042.00,2333.36,2302.50,2514.88,350.45,348.33,22.32,0000 0000 0000 0000 000000
2015-03-26 11:53:29,0.15,3.86,0.00,19.70,24.73,27.46,4.80,28.88,1005.92,2042.01,2332.26,2301.64,2513.85,350.19,347.92,22.35,0000 0000 0000 0000 000000
2015-03-26 11:58:30,0.11,3.86,0.00,19.70,24.72,27.40,4.81,28.72,1006.32,2042.01,2331.59,2300.75,2512.96,349.84,347.63,22.38,0000 0000 0000 0000 000000
2015-03-26 12:03:31,0.17,3.86,0.00,19.69,24.71,27.34,4.79,28.77,1006.46,2042.02,2330.48,2299.85,2511.92,349.45,347.49,22.41,0000 0000 0000 0000 000000
2015-03-26 12:08:33,0.17,3.87,0.00,19.65,24.70,27.38,4.81,28.75,1006.72,2042.03,2329.31,2298.84,2510.81,349.97,348.21,22.44,0000 0000 0000 0000 000000
2015-03-26 12:13:34,0.18,3.88,0.00,19.63,24.68,27.42,4.76,28.86,1006.85,2042.04,2328.21,2297.77,2509.59,349.77,348.14,22.47,0000 0000 0000 0000 000000
2015-03-26 12:18:35,0.12,3.88,0.00,19.65,24.67,27.39,4.80,28.88,1007.19,2042.03,2327.33,2296.93,2508.69,350.11,348.32,22.50,0000 0000 0000 0000 000000
2015-03-26 12:23:37,0.12,3.88,0.00,19.65,24.65,27.35,4.80,28.75,1007.48,2042.05,2326.67,2296.10,2507.93,350.05,348.72,22.52,0000 0000 0000 0000 000000
2015-03-26 12:28:38,0.08,3.89,0.00,19.69,24.65,27.36,4.83,28.82,1007.73,2042.04,2325.89,2295.83,2507.11,350.11,348.56,22.55,0000 0000 0000 0000 000000
2015-03-26 12:33:40,0.13,3.89,0.00,19.69,24.63,27.33,4.79,28.90,1007.80,2042.05,2325.04,2294.99,2506.49,349.80,348.27,22.58,0000 0000 0000 0000 000000
2015-03-26 12:38:41,0.15,3.89,0.00,19.65,24.62,27.32,4.78,28.94,1007.83,2042.05,2324.14,2294.11,2505.50,349.78,348.58,22.61,0000 0000 0000 0000 000000
2015-03-26 12:43:42,0.15,3.90,0.00,19.66,24.61,27.25,4.84,29.04,1007.88,2042.10,2323.28,2293.40,2504.81,349.81,348.44,22.64,0000 0000 0000 0000 000000
2015-03-26 12:48:43,0.07,3.90,0.00,19.69,24.60,27.28,4.84,29.00,1008.23,2042.11,2322.55,2292.95,2503.98,350.59,349.17,22.67,0000 0000 0000 0000 000000
2015-03-26 12:53:45,0.17,3.91,0.00,19.64,24.58,27.29,4.89,28.93,1008.31,2042.20,2321.48,2292.09,2503.07,350.36,349.11,22.70,0000 0000 0000 0000 000000
2015-03-26 12:58:46,0.15,3.91,0.00,19.64,24.57,27.27,4.85,29.02,1008.32,2042.41,2320.76,2291.72,2502.30,349.81,348.69,22.73,0000 0000 0000 0000 000000
2015-03-26 13:03:48,0.13,3.91,0.00,19.65,24.56,27.28,4.80,29.03,1008.33,2042.48,2319.90,2290.95,2501.51,349.79,348.60,22.76,0000 0000 0000 0000 000000